CAPE
0 0 0 0 0 0 0 0 0 0 0 0 0 0 0 0 0 0 0 0 0 0 0 0 0 0 0 0 0 0 0 0 0 0 0 0 0 0 0 0 0 0 0 0
0 0 0 0 0 0 0 0 0 0 0 0 0 0 0 0 0 0 0 0 0 0 0 0 0 0 0 0 0 0 0 0 0 0 0 0 0 0 0 0 0 0 0 0
0 0 0 0 0 0 0 0 0 0 0 0 0 0 0 0 0 0 0 0 0 0 0 0 0 0 0 0 0 0 0 0 0 0 0 0 0 0 0 0 0 0 0 0
0 0 0 0 0 0 0 0 0 0 0 0 0 0 0 0 0 0 0 0 0 0 0 0 0 0 0 0 0 0 0 0 0 0 0 0 0 0 0 0 0 0 0 0
0 0 0 0 0 0 0 0 0 0 0 0 0 0 0 0 0 0 0 0 0 0 0 0 0 0 0 0 0 0 0 0 0 0 0 0 0 0 0 0 0 0 0 0
0 0 0 0 0 0 0 0 0 0 0 0 0 0 0 0 0 0 0 0 0 0 0 0 0 0 0 0 0 0 0 0 0 0 0 0 0 0 0 0 0 0 0 0
0 0 0 0 0 0 0 0 0 0 0 0 0 0 0 0 0 0 0 0 0 0 0 0 0 0 0 0 0 0 0 0 0 0 0 0 0 0 0 0 0 0 0 0
0 0 0 0 0 0 0 0 0 0 0 0 0 0 0 0 0 0 0 0 0 0 0 0 0 0 0 0 0 0 0 0 0 0 0 0 0 0 0 0 0 0 0 0
0 0 0 0 0 0 0 0 0 0 0 0 0 0 0 0 0 0 0 0 0 0 0 0 0 0 0 0 0 0 0 0 0 0 0 0 0 0 0 0 0 0 0 0
0 0 0 0 0 0 0 0 0 0 0 0 0 0 0 0 0 0 0 0 0 0 0 0 0 0 0 0 0 0 0 0 0 0 0 0 0 0 0 0 0 0 0 0
0 0 0 0 0 0 0 0 0 0 0 0 0 0 0 0 0 0 0 0 0 0 0 0 0 0 0 0 0 0 0 0 0 0 0 0 0 0 0 0 0 0 0 0
0 0 0 0 0 0 0 0 0 0 0 0 0 0 0 0 0 0 0 0 0 0 0 0 0 0 0 0 0 0 0 0 0 0 0 0 0 0 0 0 0 0 0 0
0 0 0 0 0 0 0 0 0 0 0 1 1 0 0 0 0 0 0 0 0 0 0 0 0 0 0 0 0 0 0 0 0 0 0 0 0 0 0 0 0 0 0 0
0 0 0 0 0 0 0 0 0 0 1 0 0 0 0 0 0 0 0 0 0 0 0 0 0 0 0 0 0 0 0 0 0 0 0 0 0 0 0 0 4 9 2 3
0 0 0 0 0 0 0 0 0 0 0 0 0 0 0 0 0 0 0 0 0 0 0 0 0 0 0 0 0 0 0 0 0 0 0 0 0 3 0 0 0 0 6 5
0 0 0 0 0 0 0 0 0 0 0 0 0 0 0 0 0 0 0 0 0 0 0 0 0 0 0 0 0 0 0 0 0 0 0 0 0 0 0 0 0 0 0 0
0 0 0 0 0 0 0 0 0 0 0 0 0 0 0 0 0 0 0 0 0 0 0 0 0 0 0 0 0 0 0 0 0 0 0 0 0 0 0 0 0 0 0 0
0 0 0 0 0 0 0 0 0 0 0 0 0 0 0 0 0 0 0 0 1 1 0 0 0 0 0 0 0 0 0 0 0 0 0 0 0 0 0 0 0 0 0 0
0 0 0 0 0 0 0 0 0 0 0 0 0 0 0 0 0 0 0 1 0 0 0 0 0 0 0 0 0 0 0 0 0 0 0 0 0 0 0 0 0 0 0 0
0 0 0 0 0 0 0 0 0 0 0 0 0 0 0 0 0 2 0 0 0 0 0 0 0 0 0 0 0 0 0 0 0 0 0 0 0 0 0 0 0 0 0 0
0 0 0 0 0 0 0 0 0 0 0 0 0 0 0 0 0 0 0 0 0 0 0 0 0 0 0 0 0 0 0 0 0 0 0 0 0 0 0 0 0 0 0 0
0 0 0 0 0 0 0 0 0 0 0 0 0 0 0 0 0 0 0 0 0 0 0 0 0 0 0 0 0 0 0 0 0 0 0 0 0 0 0 0 0 0 0 0
0 0 0 0 0 0 0 0 0 0 0 0 0 0 0 0 0 0 0 0 0 0 0 0 0 0 0 0 0 0 0 0 0 0 0 0 0 0 0 0 0 0 0 0
0 0 0 0 0 0 0 0 0 0 0 0 0 0 0 0 0 0 0 0 0 0 0 0 0 0 0 0 0 0 0 0 0 0 0 0 0 0 0 0 0 0 0 0
0 0 0 0 0 0 0 0 3 0 1 0 0 0 0 0 0 0 0 0 0 0 0 0 0 0 0 0 0 0 0 0 0 0 0 0 0 0 0 0 0 0 0 0
0 0 1 6 6 20 1 3 3 0 0 0 0 0 0 0 0 0 0 0 0 0 0 0 0 0 0 0 0 0 0 0 0 0 0 0 0 0 0 0 0 0 0 0
CIN
-0 -0 -0 -0 -0 -0 -0 -0 -0 -0 -0 -0 -0 -0 -0 -0 -0 -0 -0 -0 -0 -0 -0 -0 -0 -0 -0 -0 -0 -0 -0 -0 -0 -0 -0 -0 -0 -0 -0 -0 -0 -0 -0 -0
-0 -0 -0 -0 -0 -0 -0 -0 -0 -0 -0 -0 -0 -0 -0 -0 -0 -0 -0 -0 -0 -0 -0 -0 -0 -0 -0 -0 -0 -0 -0 -0 -0 -0 -0 -0 -0 -0 -0 -0 -0 -0 -0 -0
-0 -0 -0 -0 -0 -0 -0 -0 -0 -0 -0 -0 -0 -0 -0 -0 -0 -0 -0 -0 -0 -0 -0 -0 -0 -0 -0 -0 -0 -0 -0 -0 -0 -0 -0 -0 -0 -0 -0 -0 -0 -0 -0 -0
-0 -0 -0 -0 -0 -0 -0 -0 -0 -0 -0 -0 -0 -0 -0 -0 -0 -0 -0 -0 -0 -0 -0 -0 -0 -0 -0 -0 -0 -0 -0 -0 -0 -0 -0 -0 -0 -0 -0 -0 -0 -0 -0 -0
-0 -0 -0 -0 -0 -0 -0 -0 -0 -0 -0 -0 -0 -0 -0 -0 -0 -0 -0 -0 -0 -0 -0 -0 -0 -0 -0 -0 -0 -0 -0 -0 -0 -0 -0 -0 -0 -0 -0 -0 -0 -0 -0 -0
-0 -0 -0 -0 -0 -0 -0 -0 -0 -0 -0 -0 -0 -0 -0 -0 -0 -0 -0 -0 -0 -0 -0 -0 -0 -0 -0 -0 -0 -0 -0 -0 -0 -0 -0 -0 -0 -0 -0 -0 -0 -0 -0 -0
-0 -0 -0 -0 -0 -0 -0 -0 -0 -0 -0 -0 -0 -0 -0 -0 -0 -0 -0 -0 -0 -0 -0 -0 -0 -0 -0 -0 -0 -0 -0 -0 -0 -0 -0 -0 -0 -0 -0 -0 -0 -0 -0 -0
-0 -0 -0 -0 -0 -0 -0 -0 -0 -0 -0 -0 -0 -0 -0 -0 -0 -0 -0 -0 -0 -0 -0 -0 -0 -0 -0 -0 -0 -0 -0 -0 -0 -0 -0 -0 -0 -0 -0 -0 -0 -0 -0 -0
-0 -0 -0 -0 -0 -0 -0 -0 -0 -0 -0 -0 -0 -0 -0 -0 -0 -0 -0 -0 -0 -0 -0 -0 -0 -0 -0 -0 -0 -0 -0 -0 -0 -0 -0 -0 -0 -0 -0 -0 -0 -0 -0 -0
-0 -0 -0 -0 -0 -0 -0 -0 -0 -0 -0 -0 -0 -0 -0 -0 -0 -0 -0 -0 -0 -0 -0 -0 -0 -0 -0 -0 -0 -0 -0 -0 -0 -0 -0 -0 -0 -0 -0 -0 -0 -0 -0 -0
-0 -0 -0 -0 -0 -0 -0 -0 -0 -0 -0 -0 -0 -0 -0 -0 -0 -0 -0 -0 -0 -0 -0 -0 -0 -0 -0 -0 -0 -0 -0 -0 -0 -0 -0 -0 -0 -0 -0 -0 -0 -0 -0 -0
-0 -0 -0 -0 -0 -0 -0 -0 -0 -0 -0 -0 -0 -0 -0 -0 -0 -0 -0 -0 -0 -0 -0 -0 -0 -0 -0 -0 -0 -0 -0 -0 -0 -0 -0 -0 -0 -0 -0 -0 -0 -0 -0 -0
-0 -0 -0 -0 -0 -0 -0 -0 -0 -0 -0 -0 -0 -0 -0 -0 -0 -0 -0 -0 -0 -0 -0 -0 -0 -0 -0 -0 -0 -0 -0 -0 -0 -0 -0 -0 -0 -0 -0 -0 -0 -0 -0 -0
-0 -0 -0 -0 -0 -0 -0 -0 -0 -0 -0 -0 -0 -0 -0 -0 -0 -0 -0 -0 -0 -0 -0 -0 -0 -0 -0 -0 -0 -0 -0 -0 -0 -0 -0 -0 -0 -0 -0 -0 -0 -0 -0 -0
-0 -0 -0 -0 -0 -0 -0 -0 -0 -0 -0 -0 -0 -0 -0 -0 -0 -0 -0 -0 -0 -0 -0 -0 -0 -0 -0 -0 -0 -0 -0 -0 -0 -0 -0 -0 -0 -0 -0 -0 -0 -0 -3 -11
-0 -0 -0 -0 -0 -0 -0 -0 -0 -0 -0 -0 -0 -0 -0 -0 -0 -0 -0 -0 -0 -0 -0 -0 -0 -0 -0 -0 -0 -0 -0 -0 -0 -0 -0 -0 -0 -0 -0 -0 -0 -0 -0 -0
-0 -0 -0 -0 -0 -0 -0 -0 -0 -0 -0 -0 -0 -0 -0 -0 -0 -0 -0 -0 -0 -0 -0 -0 -0 -0 -0 -0 -0 -0 -0 -0 -0 -0 -0 -0 -0 -0 -0 -0 -0 -0 -0 -0
-0 -0 -0 -0 -0 -0 -0 -0 -0 -0 -0 -0 -0 -0 -0 -0 -0 -0 -0 -0 -0 -0 -0 -0 -0 -0 -0 -0 -0 -0 -0 -0 -0 -0 -0 -0 -0 -0 -0 -0 -0 -0 -0 -0
-0 -0 -0 -0 -0 -0 -0 -0 -0 -0 -0 -0 -0 -0 -0 -0 -0 -0 -0 -0 -0 -0 -0 -0 -0 -0 -0 -0 -0 -0 -0 -0 -0 -0 -0 -0 -0 -0 -0 -0 -0 -0 -0 -0
-0 -0 -0 -0 -0 -0 -0 -0 -0 -0 -0 -0 -0 -3 -0 -0 -0 -0 -0 -0 -0 -0 -0 -0 -0 -0 -0 -0 -0 -0 -0 -0 -0 -0 -0 -0 -0 -0 -0 -0 -0 -0 -0 -0
-0 -0 -0 -0 -0 -0 -0 -0 -0 -0 -0 -0 -0 -0 -0 -3 -0 -0 -0 -0 -0 -0 -0 -0 -0 -0 -0 -0 -0 -0 -0 -0 -0 -0 -0 -0 -0 -0 -0 -0 -0 -0 -0 -0
-0 -0 -0 -0 -0 -0 -0 -0 -0 -0 -0 -0 -13 -0 -0 -0 -0 -0 -0 -0 -0 -0 -0 -0 -0 -0 -0 -0 -0 -0 -0 -0 -0 -0 -0 -0 -0 -0 -0 -0 -0 -0 -0 -0
-0 -0 -0 -0 -0 -0 -0 -0 -0 -0 -5 -0 -0 -0 -0 -0 -0 -0 -0 -0 -0 -0 -0 -0 -0 -0 -0 -0 -0 -0 -0 -0 -0 -0 -0 -0 -0 -0 -0 -0 -0 -0 -0 -0
-0 -0 -0 -0 -0 -0 -0 -0 -0 -0 -0 -0 -0 -0 -0 -0 -0 -0 -0 -0 -0 -0 -0 -0 -0 -0 -0 -0 -0 -0 -0 -0 -0 -0 -0 -0 -0 -0 -0 -0 -0 -0 -0 -0
-0 -0 -0 -0 -0 -0 -0 -1 -4 -0 -0 -0 -0 -0 -0 -0 -0 -0 -0 -0 -0 -0 -0 -0 -0 -0 -0 -10 -0 -0 -0 -0 -0 -0 -0 -0 -0 -0 -0 -0 -0 -0 -0 -0
-0 -0 -0 -3 -15 -7 -2 -1 -13 -0 -0 -0 -0 -0 -0 -0 -0 -0 -0 -0 -0 -0 -0 -0 -0 -0 -2 -0 -0 -0 -0 -0 -0 -0 -0 -0 -0 -0 -0 -0 -0 -0 -0 -0
Wind_Speed
14 13 13 15 15 15 16 17 19 20 15 21 19 20 22 22 18 16 16 15 11 9 11 12 12 10 8 8 8 8 11 14 19 23 26 28 29 30 30 31 31 30 29 28
13 13 15 14 16 17 18 17 17 16 18 18 20 19 19 20 19 18 17 16 14 13 14 14 15 13 12 10 10 13 18 21 24 25 26 27 30 29 31 31 34 35 35 36
13 15 16 16 18 19 19 18 20 21 23 17 18 18 20 19 18 18 18 16 15 15 14 14 15 14 16 16 18 19 21 23 25 27 28 29 28 30 32 39 42 43 42 41
15 16 17 19 20 21 20 20 25 24 20 17 20 15 21 20 17 17 16 15 16 16 16 17 18 19 19 19 19 19 21 24 27 28 30 33 34 38 38 41 43 45 44 44
17 18 20 21 21 22 22 26 22 18 16 16 21 19 19 20 20 18 18 17 18 18 20 21 21 19 20 20 20 21 23 27 28 30 33 35 37 38 41 44 47 48 47 44
16 18 19 22 22 22 25 20 18 17 17 19 19 21 20 20 21 20 17 18 20 21 22 21 20 19 20 21 22 23 26 29 32 35 36 37 40 43 47 50 52 51 49 47
20 20 20 22 22 20 25 20 21 20 20 20 20 23 20 22 21 19 18 20 23 24 24 22 20 21 23 25 27 28 31 33 36 37 37 40 43 46 50 51 50 50 49 47
20 19 20 21 20 20 22 21 20 23 23 25 25 23 20 17 20 19 22 22 23 24 23 22 20 21 23 26 29 32 34 36 38 40 40 40 41 44 46 47 48 48 47 41
20 18 19 21 19 19 20 21 18 21 23 26 24 21 16 17 23 24 23 23 25 25 26 25 22 23 27 30 33 36 38 39 38 38 37 38 41 44 46 48 47 45 41 35
19 17 19 18 18 22 19 17 22 24 27 29 25 26 24 20 24 24 24 23 24 27 30 32 33 32 30 31 33 33 33 35 36 37 37 40 43 44 46 47 47 43 35 34
21 18 19 18 21 18 19 20 21 21 23 26 30 26 21 21 23 25 24 21 26 29 31 32 31 31 29 29 33 34 35 37 38 38 41 43 44 45 45 44 41 37 35 33
22 19 20 19 17 18 18 19 22 25 25 26 28 31 22 18 23 28 29 23 26 28 31 32 32 33 31 30 35 38 37 38 38 40 42 43 42 43 42 40 38 35 34 31
20 20 22 20 20 20 20 19 22 22 22 23 26 26 22 23 32 34 31 28 29 31 33 36 35 34 33 36 39 38 38 37 40 42 41 42 42 41 39 38 36 35 34 33
17 18 19 21 22 23 25 23 21 21 25 23 20 25 29 32 34 35 31 28 32 35 34 36 36 36 37 38 37 38 38 38 40 40 40 41 41 39 38 38 37 35 33 32
19 19 19 20 21 22 23 24 21 20 17 22 26 28 31 34 34 30 31 36 37 37 37 39 37 39 39 40 39 37 37 39 39 39 39 41 38 37 38 38 36 34 31 31
20 23 22 26 26 26 27 27 20 14 19 22 23 27 31 31 26 29 37 41 39 40 38 36 37 41 40 39 40 39 39 38 36 36 38 37 37 37 38 37 36 34 34 33
21 22 27 29 28 31 32 20 22 24 24 26 31 35 34 33 33 39 41 40 40 37 37 38 41 37 37 39 38 40 39 35 36 36 36 37 38 37 36 35 35 35 34 34
21 23 24 30 31 32 23 22 23 26 24 25 29 32 32 36 39 37 38 37 38 39 39 38 36 37 37 36 40 38 35 35 36 35 36 37 36 35 35 36 35 34 34 35
20 22 27 29 28 31 28 24 22 23 29 25 28 32 37 42 43 40 34 34 37 37 33 34 36 38 37 39 38 34 35 36 36 36 37 35 34 34 35 35 35 35 35 36
23 22 23 27 32 33 28 24 24 23 34 21 32 42 48 43 49 42 34 38 37 34 34 38 40 36 38 39 35 35 37 37 36 34 34 31 31 32 33 33 34 34 34 34
29 28 26 25 28 26 24 22 19 33 35 31 39 41 41 41 35 37 37 36 35 37 40 41 38 36 38 37 36 38 37 36 32 29 28 28 28 30 31 32 32 33 34 33
30 29 28 25 27 31 20 23 32 32 34 31 36 37 36 35 39 38 36 36 38 41 43 42 38 38 37 36 36 36 35 32 28 27 25 26 27 28 29 30 31 32 33 34
30 19 24 21 22 26 26 29 30 29 30 33 32 33 35 37 37 38 39 40 40 42 43 42 40 40 36 35 33 34 32 30 28 24 24 25 27 28 28 30 31 32 32 34
27 21 23 27 24 27 28 28 26 29 30 29 31 33 34 37 38 40 40 41 43 44 45 44 43 41 38 34 31 30 30 28 25 24 23 25 26 28 29 29 29 30 33 33
26 22 25 26 29 28 27 28 29 26 28 30 30 32 35 37 39 40 41 43 44 45 46 46 45 42 36 34 32 31 29 26 24 22 23 23 25 28 29 29 28 28 28 28
19 22 25 33 30 31 31 29 26 28 31 32 34 36 36 37 41 42 44 44 44 46 47 48 46 40 37 34 33 30 28 25 24 23 22 23 25 27 27 28 28 25 27 28
Wind_Direction
309 319 304 294 300 322 335 332 280 285 353 316 335 337 336 345 2 3 5 11 25 34 15 8 2 4 11 18 10 10 359 353 348 346 345 345 346 345 345 345 343 343 341 338
325 302 293 323 313 315 322 335 332 323 342 350 333 337 342 351 2 7 11 15 26 34 28 24 28 34 32 25 18 358 348 344 343 343 343 343 340 342 342 344 343 342 338 334
329 318 339 312 313 310 318 326 316 289 303 345 342 337 337 350 1 8 15 26 31 29 27 25 19 20 11 1 352 348 345 346 346 346 347 346 347 344 341 336 334 332 332 331
329 329 328 327 319 314 317 319 292 291 313 330 335 341 343 351 2 0 8 13 9 6 5 359 356 350 346 347 348 352 354 350 349 349 347 345 342 337 335 332 331 331 331 328
327 323 319 323 321 323 312 312 320 326 327 333 327 332 341 352 353 351 349 354 355 354 350 346 349 351 352 355 354 352 350 348 348 347 343 340 337 336 333 332 330 329 328 329
341 335 333 322 323 330 324 333 336 336 333 326 334 336 341 345 346 351 1 358 351 346 345 350 353 356 356 355 352 349 345 343 342 340 338 337 335 333 331 329 328 328 328 327
336 335 333 336 326 329 329 330 321 322 325 326 337 334 341 346 351 358 1 355 348 347 347 349 351 349 347 345 344 341 339 337 338 336 335 334 333 332 330 330 330 328 328 328
350 339 342 336 340 335 335 335 329 320 322 324 330 331 339 358 0 359 353 351 350 349 352 353 353 350 347 344 342 339 337 335 336 335 333 333 333 333 332 331 330 329 328 329
9 3 348 347 347 347 344 337 349 334 330 324 331 339 345 344 343 346 349 348 347 347 347 348 349 344 341 339 337 336 335 335 336 336 336 335 334 333 332 331 332 331 331 331
23 26 8 4 2 354 354 2 335 336 324 323 330 332 333 335 335 345 347 346 346 344 341 338 338 336 336 338 339 338 337 335 335 335 335 334 334 334 333 333 333 333 336 336
16 15 5 5 347 356 353 350 350 349 341 331 327 337 341 340 342 344 345 344 342 341 340 340 340 339 337 336 338 338 336 334 334 335 334 334 334 334 335 336 338 339 338 339
9 12 4 3 9 3 358 347 342 338 336 333 328 332 348 348 343 339 338 339 340 341 341 342 341 341 340 339 338 336 336 336 337 336 334 335 336 337 338 340 342 342 340 342
24 13 3 2 356 352 347 344 341 340 339 332 331 334 346 339 332 333 336 336 338 338 339 340 341 342 341 339 338 339 338 338 336 337 338 338 338 340 340 342 343 343 342 340
30 16 7 354 348 343 334 333 333 332 328 328 321 322 330 332 332 334 339 342 337 336 336 338 339 340 338 339 339 338 338 339 339 339 339 338 339 340 341 340 339 340 341 341
19 4 358 350 344 339 335 329 326 321 323 326 329 328 331 332 333 337 340 337 335 334 335 336 338 339 339 339 339 340 340 341 341 341 341 341 342 342 343 343 343 343 342 340
5 353 353 347 345 343 337 333 334 337 331 326 327 327 336 338 342 337 335 335 335 335 335 337 337 337 337 338 338 340 340 341 344 342 343 345 345 344 343 344 343 344 342 341
357 354 347 342 344 340 336 346 341 335 333 330 329 332 337 337 338 335 334 336 336 338 338 336 338 339 338 339 340 339 340 342 343 343 344 344 344 346 347 347 346 344 343 343
353 350 348 339 340 336 351 344 334 328 333 334 334 337 340 338 336 336 338 339 339 339 337 338 339 340 341 341 339 340 342 342 342 343 343 344 346 347 347 347 346 346 345 343
357 351 342 338 337 336 343 349 349 341 335 340 340 338 337 335 333 333 340 341 339 339 339 339 340 339 340 340 341 342 341 340 339 340 342 345 347 348 348 348 347 346 345 344
357 352 341 336 332 334 344 351 351 349 332 351 343 335 333 336 331 334 343 341 340 339 338 337 337 338 340 341 342 340 339 339 338 340 343 346 348 349 350 350 348 348 347 346
346 342 335 332 331 335 341 355 1 336 334 339 335 335 336 334 338 338 339 340 338 339 338 337 336 336 339 341 342 340 341 340 341 341 344 348 351 352 352 351 351 350 349 348
338 334 331 335 334 335 357 347 336 336 333 337 340 341 343 343 340 340 340 338 337 336 337 339 338 337 338 340 341 342 343 346 346 346 348 351 352 353 353 352 352 352 351 349
336 336 332 330 329 333 335 333 337 340 341 342 342 341 341 340 338 338 337 337 337 337 338 339 337 336 338 339 340 341 343 346 346 348 350 352 353 354 354 353 353 353 354 352
335 333 322 324 330 329 331 333 340 339 339 341 343 341 340 338 338 337 337 337 336 337 337 338 337 335 335 339 340 341 343 346 348 349 350 352 354 354 355 355 356 356 355 355
326 329 327 323 327 332 336 337 333 339 343 342 341 340 339 339 338 337 336 335 336 336 336 336 335 334 333 337 338 340 343 346 348 350 351 353 355 356 357 360 2 2 4 5
329 324 324 323 332 331 334 339 340 339 339 341 339 338 339 338 336 336 335 336 336 336 336 336 335 334 334 336 338 342 346 349 350 351 355 356 357 359 2 4 5 10 10 9